Location: Belfast
(54.5830°N, 5.9330°W)
Time: 23:08:30
(UTC+01:00)

ISS - Pass Details

Date: 20 May 2018
Orbit: 402 x 407 km, 51.6° (Epoch: 24 May)

Event Time Altitude Azimuth Distance (km) Brightness Sun altitude
Exits shadow 02:11:24 10° 257° (WSW) 1,450 -1.3 -14.7°
Maximum altitude 02:14:33 50° 181° (S) 519 -3.7 -14.6°
Drops below altitude 10° 02:17:44 10° 105° (ESE) 1,458 -1.0 -14.5°
Sets 02:19:50 0° 100° (E) 2,317 0.1 -14.4°
